Theta_e
303 299 296 298 299 300 300 297 297 301 306 312 312 313 323 326 326 327 329 330 331 331 334 338 340 342 343 343 343 344 344 345 346 344 345 343 342 343 347 346 348 350 353 354
297 297 302 304 302 300 298 297 296 302 313 312 311 312 322 325 325 326 327 328 330 330 331 335 337 341 341 340 341 344 345 344 346 346 347 345 344 344 345 349 347 349 351 352
297 298 304 303 300 299 297 296 296 298 309 314 312 309 316 324 324 327 328 329 330 330 328 329 335 339 341 340 341 343 345 345 345 346 346 345 346 344 344 344 347 350 351 353
296 302 302 300 300 301 294 301 302 301 300 298 311 299 309 316 318 322 326 328 329 330 331 331 334 338 340 340 343 344 345 345 345 346 346 344 342 340 342 345 346 349 352 351
296 298 299 298 301 302 299 303 301 301 297 296 302 299 304 314 312 315 320 326 328 330 331 331 332 336 340 341 341 344 344 346 346 347 347 346 343 344 342 343 345 347 349 350
301 304 302 301 304 304 304 300 297 296 294 292 298 302 304 308 313 315 317 322 328 329 330 332 332 335 338 341 341 343 342 345 347 347 348 346 344 341 341 341 342 345 345 348
297 299 302 304 299 300 299 292 287 285 286 289 296 299 304 310 317 318 319 319 324 329 329 330 330 332 335 338 340 342 342 343 347 347 348 347 346 343 342 342 343 341 342 343
293 291 300 303 300 297 296 296 286 282 284 289 294 294 301 313 317 321 323 322 323 325 328 329 330 331 333 337 339 341 341 342 347 348 348 347 347 345 344 342 343 343 344 346
293 293 303 305 303 303 295 293 297 287 288 287 292 298 307 313 314 317 320 321 322 324 326 328 330 330 333 335 338 341 342 343 345 348 348 347 347 345 344 342 342 344 345 346
296 291 299 302 304 302 300 297 290 285 285 285 287 292 296 306 311 313 317 321 323 325 325 327 329 330 332 335 337 340 343 343 345 347 348 348 347 347 346 344 344 343 343 342
293 292 294 300 297 298 294 295 291 292 287 288 283 291 300 305 309 311 315 322 324 325 327 326 328 330 332 335 337 340 342 343 344 346 347 347 348 349 350 349 347 345 343 341
296 288 293 297 299 304 302 298 295 289 287 288 292 291 302 306 307 312 315 319 324 327 328 328 327 329 330 333 336 340 342 343 344 347 347 346 346 347 349 350 350 348 344 342
299 289 285 288 292 295 296 298 298 296 289 293 288 290 301 304 308 311 314 317 320 326 325 327 327 327 328 332 336 339 342 344 345 346 347 347 346 346 346 347 350 351 349 346
297 288 288 288 289 294 293 297 299 296 291 293 295 292 296 301 303 308 315 317 318 322 324 326 326 327 328 331 336 337 342 344 345 345 346 346 347 347 346 346 347 350 351 347
292 286 289 292 295 297 296 298 299 294 297 294 296 295 298 300 304 307 312 317 319 320 322 325 326 327 326 328 334 337 341 345 346 345 346 346 348 349 349 348 346 347 349 350
290 288 289 290 296 298 296 298 300 300 300 297 294 294 300 303 302 303 307 314 317 319 323 323 324 328 329 330 333 337 338 343 347 346 346 348 348 350 350 350 350 348 348 348
287 287 287 285 293 293 292 297 299 300 301 300 294 297 300 300 301 302 304 308 316 320 322 320 320 324 327 331 334 335 338 342 347 347 348 349 349 349 351 352 352 351 349 349
287 287 288 285 289 285 297 303 304 301 301 300 299 300 302 303 305 307 306 308 313 317 319 319 321 321 322 328 333 337 339 339 345 347 348 350 350 350 351 352 352 353 353 350
292 288 286 285 285 292 299 300 300 298 297 303 302 303 303 304 303 303 308 309 314 316 317 322 324 325 324 326 332 335 336 339 343 345 347 350 351 351 351 351 352 353 355 353
292 292 292 287 285 285 295 308 312 305 297 304 304 304 304 303 298 305 307 312 314 315 315 318 323 327 328 329 334 336 337 339 340 345 347 350 352 352 352 353 353 354 355 354
287 288 287 289 288 292 306 310 313 295 297 306 310 307 304 302 305 308 309 314 311 312 314 316 321 327 331 331 332 333 336 337 341 344 348 349 351 353 354 354 355 355 355 354
291 289 289 290 290 287 310 310 301 304 309 312 314 310 305 306 308 313 318 321 322 320 314 313 314 322 327 334 333 331 331 337 340 342 342 345 349 352 353 353 354 355 355 353
290 296 294 295 295 305 309 310 312 313 311 311 318 314 314 317 319 321 322 322 325 325 332 327 312 312 313 326 335 332 334 336 336 338 339 341 344 350 352 352 353 354 354 352
296 300 297 299 306 308 311 313 313 315 317 328 329 325 323 326 328 329 332 333 335 337 339 339 338 338 338 342 332 334 336 336 334 334 335 338 341 344 349 353 354 354 353 349
293 300 298 298 306 311 312 312 313 314 317 325 328 328 329 332 331 332 334 335 338 340 341 342 341 340 341 344 344 345 343 340 339 339 337 340 343 343 319 312 311 332 333 341
300 301 298 297 306 308 308 313 316 314 314 316 318 320 321 324 327 331 330 332 334 335 337 339 341 342 342 342 341 343 346 347 347 346 345 340 329 327 324 326 324 309 310 314
Wind_Speed
6 7 13 9 7 5 6 3 4 5 8 1 13 6 21 22 18 19 19 19 20 21 21 20 19 19 17 15 15 16 15 14 11 5 6 3 4 3 3 4 6 7 6 6
2 14 8 8 8 8 6 6 7 5 6 9 10 9 19 23 27 24 23 22 23 18 16 19 19 19 20 18 18 16 17 15 13 10 9 5 4 3 3 4 5 6 7 8
11 7 11 9 6 9 6 10 5 7 0 2 6 3 12 17 5 13 17 19 21 22 20 18 20 21 20 20 20 20 19 18 15 15 7 3 3 2 2 2 3 5 7 8
7 9 10 7 11 10 10 5 6 8 5 5 6 5 14 17 18 17 17 19 20 20 19 17 19 20 21 21 18 19 19 18 16 15 12 13 7 6 4 5 4 5 7 7
11 14 17 13 14 8 10 6 7 6 5 1 5 2 8 18 16 21 21 24 22 22 20 21 21 24 23 20 19 18 18 17 17 16 16 12 9 7 4 4 6 7 6 7
16 5 15 17 9 13 5 3 2 0 3 7 12 8 9 10 26 23 20 24 27 25 24 23 23 20 18 19 18 18 18 17 17 17 17 17 15 9 6 5 5 4 4 5
5 18 4 7 9 6 7 8 4 3 4 11 10 7 15 9 15 21 24 26 27 26 25 24 22 20 19 21 22 19 19 19 19 19 18 17 16 14 13 10 7 6 4 4
9 6 17 7 11 11 10 15 8 9 4 7 5 12 15 16 13 19 18 24 24 25 24 25 25 22 22 23 22 22 21 20 19 18 18 16 16 11 11 10 7 6 6 7
10 10 4 13 7 18 9 13 12 3 2 3 6 9 6 9 11 12 13 13 20 24 24 25 24 23 22 21 24 24 22 22 20 20 16 16 15 15 13 10 8 7 7 6
7 2 8 10 10 9 14 9 5 2 12 15 6 8 7 10 17 12 11 16 20 21 22 24 23 22 21 21 21 21 21 23 22 22 19 17 17 16 13 11 11 10 9 8
1 4 5 7 9 19 4 10 5 8 7 11 2 11 10 9 11 13 15 18 22 22 23 23 21 20 22 20 20 22 19 21 20 20 18 17 15 15 14 13 11 12 11 10
7 2 16 18 5 14 19 14 12 6 10 7 11 11 3 17 15 10 11 14 20 23 21 19 20 20 18 18 16 20 21 20 20 19 18 19 17 16 16 15 13 12 14 11
9 5 2 7 3 3 8 10 16 12 1 22 8 6 8 7 7 9 11 10 8 16 14 19 17 17 18 19 20 20 20 22 21 19 19 17 17 17 18 18 16 13 14 13
3 4 5 11 4 5 8 10 15 16 12 12 20 4 4 6 11 9 9 10 9 14 17 18 14 15 16 18 21 19 20 20 19 19 20 20 19 19 18 18 17 16 14 13
5 4 5 7 11 15 15 15 25 19 23 17 13 14 13 10 10 10 10 6 8 9 14 18 18 17 15 14 16 17 16 17 19 19 20 22 19 18 18 17 17 16 16 14
5 5 5 7 10 13 16 19 24 29 22 14 7 8 10 15 9 8 11 9 11 14 17 17 18 18 18 19 21 22 20 19 19 20 22 20 19 18 19 18 16 16 16 16
2 2 5 5 6 11 14 30 20 12 13 18 15 9 8 8 10 13 13 11 14 15 18 15 13 16 16 18 19 20 22 20 22 22 19 20 19 19 19 17 16 18 18 16
6 4 2 6 5 9 12 10 19 17 9 7 5 11 11 15 14 15 13 11 12 11 12 12 11 13 12 17 18 18 14 17 18 19 18 18 19 19 18 18 19 17 15 17
19 6 3 4 4 10 12 3 6 13 10 7 12 10 10 11 1 6 7 7 12 12 13 14 13 11 10 11 12 12 12 15 15 18 18 19 20 20 19 19 21 17 16 15
22 19 8 3 5 7 2 15 21 14 19 16 13 11 10 7 4 12 7 8 11 10 8 9 10 7 9 9 14 14 14 15 18 18 20 20 20 20 21 21 20 17 15 17
10 9 13 11 5 10 12 21 10 8 7 15 12 16 11 8 10 11 7 8 7 8 10 4 8 12 14 11 13 15 15 19 21 18 16 15 17 20 20 17 15 16 17 14
8 11 8 8 8 9 12 9 8 10 23 19 10 7 11 9 7 5 7 6 8 9 8 8 6 9 9 8 12 12 15 19 16 16 16 17 17 14 12 16 14 14 14 15
6 5 9 9 7 4 4 3 9 13 20 17 12 8 8 8 6 8 7 5 5 6 4 3 3 3 1 3 7 13 20 17 16 15 17 18 17 17 17 18 19 16 18 14
7 9 6 5 5 6 9 13 14 20 20 12 8 5 6 9 5 7 6 5 6 6 7 5 8 8 7 5 3 6 7 4 3 7 9 7 11 12 8 7 10 11 12 13
10 6 13 15 4 4 9 12 17 24 16 10 14 16 13 9 8 7 7 9 8 8 10 9 10 9 10 8 7 6 3 6 6 5 4 4 4 7 12 13 9 4 6 2
9 7 8 10 6 4 5 7 15 18 10 11 16 18 18 18 14 12 12 10 10 10 10 11 11 10 10 11 12 11 9 6 7 7 7 6 7 7 8 10 13 21 21 25
Wind_Direction
194 186 209 192 183 178 155 185 180 282 292 149 199 159 179 181 187 192 189 194 199 209 202 196 195 193 189 189 191 196 193 193 180 171 183 183 207 180 186 197 204 188 179 182
161 219 203 193 193 217 204 205 244 259 248 188 216 203 187 181 196 194 188 197 204 198 202 201 201 194 190 188 192 196 198 191 187 188 193 183 176 195 174 186 195 190 189 198
201 225 182 186 190 200 212 206 173 208 112 51 118 162 188 208 229 204 209 206 207 200 189 192 199 200 198 196 194 196 197 194 190 186 179 106 100 72 113 166 196 205 205 206
213 218 186 178 210 192 235 168 157 215 138 213 169 237 190 194 207 207 209 211 210 211 207 195 196 196 200 202 197 196 194 195 193 182 188 197 187 178 195 184 196 198 196 196
217 185 196 211 208 172 241 169 186 209 206 169 237 174 234 182 206 213 205 209 211 211 208 206 198 201 203 196 193 194 193 195 190 185 191 194 195 196 176 175 192 207 197 191
214 196 197 210 192 204 170 317 57 21 146 234 228 195 232 187 209 214 206 214 209 205 211 209 210 201 202 198 197 194 191 197 192 189 192 193 193 185 193 190 202 200 192 195
177 223 217 151 184 184 137 120 263 276 213 232 213 192 229 209 203 208 207 209 209 205 205 209 208 202 197 197 195 193 193 197 193 191 193 194 196 190 199 200 196 174 171 192
180 216 208 199 187 192 194 185 163 190 206 226 158 232 236 217 234 217 213 211 205 202 203 206 207 204 198 198 196 194 192 197 192 192 194 195 197 195 202 203 198 192 188 204
180 236 228 195 175 172 197 192 193 147 209 12 222 279 315 216 244 233 219 213 209 201 202 206 207 205 203 197 198 196 193 197 194 195 193 193 195 197 201 201 195 192 192 202
205 224 212 203 173 220 192 172 156 338 214 240 252 244 215 191 220 227 214 209 214 209 199 208 208 204 201 201 201 200 198 195 191 194 193 194 193 197 198 199 197 190 200 194
83 157 252 136 189 196 166 204 198 171 166 220 217 257 181 212 213 213 214 211 214 205 203 205 210 204 204 199 193 196 198 197 199 194 194 196 195 196 200 202 198 189 191 186
335 254 236 228 220 193 212 214 193 181 229 241 229 233 252 199 213 207 240 221 218 210 208 206 206 203 200 202 194 193 194 194 199 196 196 195 194 193 199 206 201 193 194 191
340 301 220 325 337 248 208 200 205 207 130 228 199 247 237 198 207 212 212 237 231 220 203 204 204 201 198 195 194 196 196 199 195 192 193 197 196 195 201 206 203 193 201 196
9 284 246 249 276 181 208 214 212 197 223 216 232 209 211 211 217 219 231 228 201 188 188 199 202 199 197 196 197 195 200 198 193 193 194 194 198 198 201 204 206 201 196 195
66 282 282 285 294 287 262 226 216 211 219 202 223 205 230 202 204 221 220 214 183 206 201 201 201 192 187 186 193 201 201 196 192 194 199 202 195 199 203 204 203 207 205 199
2 279 329 283 263 254 260 257 233 217 218 230 195 228 212 218 219 218 223 204 201 203 203 213 211 199 197 192 192 193 191 191 191 196 203 199 197 197 202 201 200 202 206 206
292 269 340 269 306 319 255 230 244 247 204 201 207 201 197 240 203 219 231 216 203 204 215 197 208 207 206 203 196 199 196 184 187 198 198 198 198 200 201 200 199 203 204 200
208 170 255 267 314 221 281 195 220 230 229 202 149 189 200 210 222 221 211 201 216 201 208 219 203 208 212 212 199 202 186 190 195 196 195 194 196 204 201 198 203 205 201 204
203 182 243 233 242 289 306 1 236 183 230 208 188 201 208 222 31 261 226 214 205 201 203 213 208 214 205 188 187 164 171 182 188 196 198 196 196 199 198 201 202 199 200 202
192 205 202 184 230 246 101 328 322 312 224 201 183 199 197 127 193 248 199 209 226 219 205 185 200 188 174 182 155 161 174 180 196 198 201 198 198 199 201 202 199 199 200 205
171 191 217 247 254 280 349 331 315 163 242 307 187 200 177 175 199 223 173 206 203 196 208 212 166 182 198 171 166 182 184 193 202 201 200 199 202 203 203 201 199 196 198 201
193 162 180 231 220 255 7 10 8 306 300 292 262 189 177 197 179 191 151 163 160 167 174 189 196 194 181 166 174 186 195 211 200 193 194 195 196 199 199 195 194 196 198 198
233 186 177 203 228 151 165 244 302 314 294 286 284 136 133 143 174 150 144 146 115 106 94 90 218 273 353 178 189 191 214 205 194 186 195 199 197 199 190 192 193 188 187 192
282 195 183 259 222 233 41 5 349 332 309 298 325 19 112 112 82 94 99 73 58 45 46 41 66 60 46 18 306 275 340 18 151 183 202 211 200 196 206 209 203 204 187 180
260 273 216 225 274 269 52 17 342 319 311 23 38 37 38 66 55 65 58 48 41 38 34 44 52 51 44 46 50 18 304 168 177 181 184 162 149 134 90 76 39 23 23 164
229 237 210 218 185 127 81 11 327 309 312 46 54 41 39 41 40 44 48 39 38 38 33 40 36 44 36 37 34 25 30 55 78 72 62 69 93 97 101 111 88 75 80 70